FENGYUN 1C DEB

Satellite information

Favourite Embed

Satellite Type and Status

DEBRISIN ORBIT

Key statistics

Satellite FENGYUN 1C DEB at a glance.

Uptime

9493

Days in orbit

Revolutions

≈ 14.2

Per day

Orbit

SSO

Sun Synchronous Orbit

Inclination

98.9

Latest

Satellite identification and parameters

Extended collection of information and parameters for FENGYUN 1C DEB.

Object identification

Identified? True

Debris? True

Object name: FENGYUN 1C DEB

International designator: 1999-025AZD

Object number (NORAD): 30915

Object ID (CCSDS): 30915

Country: PEOPLES REPUBLIC OF CHINA (PRC)

Current information (Y/N): Y

RCS size: SMALL

Orbital parameters

Period: 101.172 minutes

Inclination: 98.9479 deg

SMA: 7192.29 km

Apoapsis: 853.61 km

Periapsis: 774.7 km

RAAN: 198.1454 deg

Eccentricy: 0.0054857

Argument of periapsis: 85.5227 deg

Mean anomaly: 275.2215 deg

Mean motion: 14.23318111 rev/day

Mean motion (dot): 0.00004204 rev/day2

B* drag term: 0.0018458 1/REarth

Two-line elements (TLE)

Creation date: May 6, 2025, 3:54 a.m.

Reference frame: TEME

Reference center: EARTH

Epoch: May 5, 2025, 8:53 p.m. UTC

TLE line 0: 0 FENGYUN 1C DEB

TLE line 1: 1 30915U 99025AZD 25125.87051099 .00004204 00000-0 18458-2 0 9995

TLE line 2: 2 30915 98.9479 198.1454 0054857 85.5227 275.2215 14.23318111933695

Live tracking on map

Real-time ground track for satellite FENGYUN 1C DEB.

In-orbit conjunctions

A list of the most updated potential collisions computed for object FENGYUN 1C DEB.

Target Orbit TCA Probability of collision Miss distance Type
COSMOS 1110 LEO 2025-03-26 13:24:07 0.0002446534 203.0 (m) PAYLOAD
CZ-6A DEB LEO 2025-03-05 16:25:36 0.0006167548 362.0 (m) DEBRIS
CZ-6A DEB LEO 2025-02-13 19:17:48 0.0001001062 943.0 (m) DEBRIS
CZ-6A DEB LEO 2025-01-11 20:51:39 0.0001555406 173.0 (m) DEBRIS
OSCAR 19 (LUSAT) SSO 2024-12-31 09:33:00 0.0003138556 610.0 (m) PAYLOAD

Associated space launch

Chinese polar orbiting meteorological satellite

FENGYUN 1C DEB was lifted into orbit during the mission ‘Long March 4B | Feng Yun 1C’, on board a Long March 4B space rocket.

The launch took place on May 10, 1999, 1:33 a.m. from Launch Complex 7.

For more information about the launch, click the button.

Launch to space Long March 4B | Feng Yun 1C
Long March 4B | Feng Yun 1C

Agency: N/A

Status: Launch Successful

Launch date: May 10, 1999, 1:33 a.m. UTC

Rocket: Long March 4B

Launch pad: Launch Complex 7

Location: Taiyuan Satellite Launch Center, People's Republic of China

...

Latest news about this satellite

There are no fresh news available about this satellite. Check back as we update our databases every day.


Newsletter sign-up

Weekly statistics, charts and insights to help you stay on top of the space industry.